星链-4162 (STARLINK-4162 )

导读

STARLINK-4162是由美国于2022年7月24日发射的Starlink(星链)卫星,星链是SpaceX开发的巨型卫星星座,旨在为全球提供高速互联网接入服务,这颗卫星是星链计划中的一员,参与构建低轨卫星互联网通信系统。

Basic Information
目录编号:
53288
目录名称:
STARLINK-4162
国际标识:
2022-086AY
轨道中心:
EARTH
卫星名称:
星链-4162
卫星全名:
星链-4162 (STARLINK-4162 )
卫星状态:
在轨 (已飞行1503 天)
发射日期:
2022-07-24 UTC
国别 :
美国 (US)
星等 :
--
Orbit Information
数据来源 国际轨道数据
星历时间: 2026-09-02T22:04:35+0800
1天前
查看轨道信息
半长轴: 6837.89km
偏心率: 0.0001419
轨道倾角: 53.161°
近地点辐角 98.025°
升交点赤经 97.488°
平近点角 262.091°
近地点: 458.782km
远地点: 460.724km
周期: 93.787分钟
每日圈数: 15.353933
Detailed Information
固有亮度:
5
最大亮度:
2.5
卫星平台:
Starlink v1.5
覆盖范围:
全球
运营商:
太空探索技术公司
运营商所在国:
美国
制造商(研发单位):
太空探索技术公司
制造商所在国:
美国
使用方式:
暂无
Satellite Introduction
星链(Starlink)计划是由太空探索技术公司(SpaceX)提出的一个巨型低轨卫星互联网星座项目,计划在2019年至2024年间在太空搭建由约1.2万颗卫星组成的“星链”网络,其中1584颗将部署在地球上空550千米处的近地轨道,并从2020年开始工作。该卫星仍在工作。
2D Orbit Map
3D Orbit Map
Orbit Altitude Analysis Chart
Orbit Inclination Analysis Chart
Orbit Comprehensive Analysis Chart
View Comprehensive Chart
Conjunction Data List
Event ID Objects TCA Miss Dist (km) Collision Risk Probability Collision Risk Index (CRI) Action
CDM_260905-023602-911005-328821
2026-09-05T
02:36:23+0000
1.969 km
极远距离
2.588078E-6 低风险 0.43
CDM_260903-065305-328805-701223
OBJECT J (57012)
2026-09-03T
06:53:07+0000
2.570 km
极远距离
1.440698E-6 低风险 0.38
CDM_260831-173305-328806-689721
2026-08-31T
17:33:33+0000
2.702 km
极远距离
1.380644E-6 低风险 0.38
CDM_260903-194005-328806-694321
2026-09-03T
19:40:24+0000
2.831 km
极远距离
1.274975E-6 低风险 0.37
CDM_260903-211405-328806-856021
2026-09-03T
21:14:57+0000
2.888 km
极远距离
1.24726E-6 低风险 0.37
CDM_260904-174405-328806-030021
2026-09-04T
17:44:23+0000
2.888 km
极远距离
1.231217E-6 低风险 0.37
CDM_260903-203805-328806-338721
2026-09-03T
20:38:13+0000
2.970 km
极远距离
1.19458E-6 低风险 0.37
CDM_260904-014205-328806-550321
2026-09-04T
01:42:55+0000
2.797 km
极远距离
9.556989E-7 极低风险 0.35
CDM_260904-110405-017705-328821
2026-09-04T
11:04:46+0000
2.875 km
极远距离
8.844011E-7 极低风险 0.34
CDM_260904-223905-328806-537021
2026-09-04T
22:39:52+0000
2.623 km
极远距离
7.057381E-7 极低风险 0.32